When you browse on this site, cookies collect data to enhance your experience and personalize the content and advertising you see.
Visit our Privacy Policy to learn more. By continuing to use the site, you agree to this use of cookies and data.
  • In Schweiz
  • Länderverzeichnis
  • Für 7 Tage
  • Wassertemperatur
  • Satellitenkarten
  • Wetterkarte
  • Widgets
  • user-avatar
    Anmelden

    Stündliche Wetter Benguela

    Heute, 24 Juni, Montag

    Zeit Temperatur Niederschläge Wind Luftdruck Luftfeuchtigkeit
    00:00 +20°C° 0 mm 2 m/S 761 mmHg 89%
    01:00 +20°C° 0 mm 2 m/S 761 mmHg 88%
    02:00 +19°C° 0 mm 2 m/S 761 mmHg 87%
    03:00 +19°C° 0 mm 2 m/S 760 mmHg 87%
    04:00 +18°C° 0 mm 2 m/S 760 mmHg 86%
    05:00 +18°C° 0 mm 2 m/S 760 mmHg 82%
    06:00 +18°C° 0 mm 2 m/S 761 mmHg 79%
    07:00 +20°C° 0 mm 1 m/S 761 mmHg 73%
    08:00 +23°C° 0 mm 1 m/S 761 mmHg 62%
    09:00 +26°C° 0 mm 1 m/S 761 mmHg 50%
    10:00 +29°C° 0 mm 1 m/S 761 mmHg 38%
    11:00 +30°C° 0 mm 2 m/S 761 mmHg 40%
    12:00 +30°C° 0 mm 3 m/S 760 mmHg 41%
    13:00 +31°C° 0 mm 3 m/S 760 mmHg 43%
    14:00 +30°C° 0 mm 4 m/S 759 mmHg 45%
    15:00 +30°C° 0 mm 4 m/S 759 mmHg 46%
    16:00 +30°C° 0 mm 4 m/S 759 mmHg 48%
    17:00 +27°C° 0 mm 3 m/S 759 mmHg 61%
    18:00 +24°C° 0 mm 3 m/S 759 mmHg 73%
    19:00 +20°C° 0 mm 3 m/S 760 mmHg 85%
    20:00 +20°C° 0 mm 2 m/S 760 mmHg 86%
    21:00 +19°C° 0 mm 2 m/S 760 mmHg 86%
    22:00 +19°C° 0 mm 2 m/S 760 mmHg 86%
    23:00 +18°C° 0 mm 2 m/S 760 mmHg 83%

    Morgen, 25 Juni, Dienstag

    Zeit Temperatur Niederschläge Wind Luftdruck Luftfeuchtigkeit
    00:00 +18°C° 0 mm 2 m/S 760 mmHg 80%
    01:00 +18°C° 0 mm 2 m/S 760 mmHg 77%
    02:00 +18°C° 0 mm 2 m/S 760 mmHg 74%
    03:00 +17°C° 0 mm 2 m/S 760 mmHg 72%
    04:00 +18°C° 0 mm 1 m/S 759 mmHg 69%
    05:00 +18°C° 0 mm 1 m/S 760 mmHg 66%
    06:00 +18°C° 0 mm 2 m/S 760 mmHg 63%
    07:00 +18°C° 0 mm 2 m/S 761 mmHg 59%
    08:00 +22°C° 0 mm 1 m/S 761 mmHg 50%
    09:00 +26°C° 0 mm 1 m/S 761 mmHg 40%
    10:00 +29°C° 0 mm 1 m/S 760 mmHg 30%
    11:00 +30°C° 0 mm 2 m/S 760 mmHg 33%
    12:00 +30°C° 0 mm 3 m/S 759 mmHg 36%
    13:00 +31°C° 0 mm 3 m/S 758 mmHg 38%
    14:00 +30°C° 0 mm 4 m/S 758 mmHg 42%
    15:00 +30°C° 0 mm 4 m/S 758 mmHg 45%
    16:00 +29°C° 0 mm 5 m/S 758 mmHg 48%
    17:00 +26°C° 0 mm 4 m/S 758 mmHg 62%
    18:00 +22°C° 0 mm 4 m/S 759 mmHg 76%
    19:00 +19°C° 0 mm 3 m/S 759 mmHg 90%
    20:00 +19°C° 0 mm 3 m/S 760 mmHg 91%
    21:00 +18°C° 0 mm 2 m/S 760 mmHg 92%
    22:00 +18°C° 0 mm 2 m/S 761 mmHg 92%
    23:00 +19°C° 0 mm 1 m/S 761 mmHg 91%

    übermorgen, 26 Juni, Mittwoch

    Zeit Temperatur Niederschläge Wind Luftdruck Luftfeuchtigkeit
    00:00 +18°C° 0 mm 1 m/S 761 mmHg 89%
    01:00 +18°C° 0 mm 1 m/S 761 mmHg 87%
    02:00 +18°C° 0 mm 1 m/S 760 mmHg 86%
    03:00 +18°C° 0 mm 1 m/S 760 mmHg 86%
    04:00 +18°C° 0 mm 1 m/S 760 mmHg 85%
    05:00 +18°C° 0 mm 1 m/S 761 mmHg 83%
    06:00 +18°C° 0 mm 1 m/S 761 mmHg 80%
    07:00 +19°C° 0 mm 1 m/S 761 mmHg 78%
    08:00 +21°C° 0 mm 1 m/S 761 mmHg 67%
    09:00 +24°C° 0 mm 2 m/S 761 mmHg 56%
    10:00 +27°C° 0 mm 2 m/S 761 mmHg 45%
    11:00 +28°C° 0 mm 2 m/S 761 mmHg 46%
    12:00 +29°C° 0 mm 3 m/S 760 mmHg 47%
    13:00 +30°C° 0 mm 4 m/S 760 mmHg 47%
    14:00 +29°C° 0 mm 4 m/S 760 mmHg 52%
    15:00 +28°C° 0 mm 3 m/S 759 mmHg 56%
    16:00 +27°C° 0 mm 3 m/S 759 mmHg 61%
    17:00 +25°C° 0 mm 3 m/S 760 mmHg 70%
    18:00 +22°C° 0 mm 3 m/S 760 mmHg 80%
    19:00 +20°C° 0 mm 3 m/S 761 mmHg 90%
    20:00 +19°C° 0 mm 3 m/S 762 mmHg 91%
    21:00 +19°C° 0 mm 3 m/S 762 mmHg 92%
    22:00 +19°C° 0 mm 3 m/S 762 mmHg 93%
    23:00 +18°C° 0 mm 3 m/S 762 mmHg 93%

    27 Juni, Donnerstag

    Zeit Temperatur Niederschläge Wind Luftdruck Luftfeuchtigkeit
    00:00 +18°C° 0 mm 3 m/S 762 mmHg 94%
    01:00 +17°C° 0 mm 3 m/S 761 mmHg 94%
    02:00 +17°C° 0 mm 2 m/S 761 mmHg 94%
    03:00 +17°C° 0 mm 2 m/S 761 mmHg 94%
    04:00 +16°C° 0 mm 1 m/S 761 mmHg 94%
    05:00 +18°C° 0 mm 1 m/S 761 mmHg 93%
    06:00 +18°C° 0 mm 1 m/S 761 mmHg 91%
    07:00 +18°C° 0 mm 1 m/S 762 mmHg 90%
    08:00 +21°C° 0 mm 1 m/S 762 mmHg 78%
    09:00 +24°C° 0 mm 1 m/S 762 mmHg 66%
    10:00 +26°C° 0 mm 1 m/S 762 mmHg 54%
    11:00 +27°C° 0 mm 2 m/S 761 mmHg 52%
    12:00 +28°C° 0 mm 3 m/S 760 mmHg 51%
    13:00 +29°C° 0 mm 4 m/S 760 mmHg 50%
    14:00 +28°C° 0 mm 4 m/S 759 mmHg 53%
    15:00 +27°C° 0 mm 5 m/S 759 mmHg 56%
    16:00 +27°C° 0 mm 5 m/S 759 mmHg 58%
    17:00 +25°C° 0 mm 4 m/S 760 mmHg 69%
    18:00 +21°C° 0 mm 4 m/S 760 mmHg 79%
    19:00 +19°C° 0 mm 4 m/S 761 mmHg 89%
    20:00 +19°C° 0 mm 4 m/S 761 mmHg 90%
    21:00 +19°C° 0 mm 3 m/S 761 mmHg 91%
    22:00 +18°C° 0 mm 3 m/S 762 mmHg 92%
    23:00 +18°C° 0 mm 3 m/S 762 mmHg 93%

    28 Juni, Freitag

    Zeit Temperatur Niederschläge Wind Luftdruck Luftfeuchtigkeit
    00:00 +17°C° 0 mm 2 m/S 761 mmHg 94%
    01:00 +17°C° 0 mm 2 m/S 761 mmHg 94%
    02:00 +17°C° 0 mm 2 m/S 761 mmHg 94%
    03:00 +16°C° 0 mm 1 m/S 761 mmHg 93%
    04:00 +16°C° 0 mm 1 m/S 760 mmHg 92%
    05:00 +18°C° 0 mm 1 m/S 761 mmHg 91%
    06:00 +18°C° 0 mm 1 m/S 761 mmHg 90%
    07:00 +19°C° 0 mm 1 m/S 761 mmHg 89%
    08:00 +21°C° 0 mm 1 m/S 761 mmHg 76%
    09:00 +24°C° 0 mm 1 m/S 761 mmHg 64%
    10:00 +27°C° 0 mm 1 m/S 761 mmHg 51%
    11:00 +28°C° 0 mm 2 m/S 760 mmHg 50%
    12:00 +29°C° 0 mm 3 m/S 760 mmHg 49%
    13:00 +30°C° 0 mm 4 m/S 759 mmHg 48%
    14:00 +29°C° 0 mm 4 m/S 759 mmHg 51%
    15:00 +28°C° 0 mm 4 m/S 758 mmHg 55%
    16:00 +27°C° 0 mm 4 m/S 758 mmHg 58%
    17:00 +25°C° 0 mm 3 m/S 759 mmHg 69%
    18:00 +22°C° 0 mm 3 m/S 759 mmHg 80%
    19:00 +20°C° 0 mm 3 m/S 760 mmHg 91%
    20:00 +19°C° 0 mm 2 m/S 761 mmHg 92%
    21:00 +19°C° 0 mm 2 m/S 761 mmHg 92%
    22:00 +19°C° 0 mm 2 m/S 761 mmHg 93%
    23:00 +19°C° 0 mm 2 m/S 761 mmHg 92%

    29 Juni, Samstag

    Zeit Temperatur Niederschläge Wind Luftdruck Luftfeuchtigkeit
    00:00 +19°C° 0 mm 2 m/S 761 mmHg 92%
    01:00 +18°C° 0 mm 2 m/S 761 mmHg 91%
    02:00 +19°C° 0 mm 1 m/S 761 mmHg 91%
    03:00 +19°C° 0 mm 1 m/S 761 mmHg 92%
    04:00 +16°C° 0 mm 0 m/S 760 mmHg 92%
    05:00 +19°C° 0 mm 1 m/S 761 mmHg 92%
    06:00 +19°C° 0 mm 1 m/S 761 mmHg 91%
    07:00 +19°C° 0 mm 1 m/S 761 mmHg 91%
    08:00 +22°C° 0 mm 1 m/S 761 mmHg 80%
    09:00 +24°C° 0 mm 1 m/S 761 mmHg 69%
    10:00 +27°C° 0 mm 2 m/S 761 mmHg 58%
    11:00 +28°C° 0 mm 2 m/S 761 mmHg 56%
    12:00 +29°C° 0 mm 3 m/S 760 mmHg 54%
    13:00 +30°C° 0 mm 3 m/S 759 mmHg 52%
    14:00 +29°C° 0 mm 3 m/S 759 mmHg 55%
    15:00 +28°C° 0 mm 3 m/S 758 mmHg 58%
    16:00 +28°C° 0 mm 3 m/S 758 mmHg 61%
    17:00 +26°C° 0 mm 3 m/S 759 mmHg 71%
    18:00 +23°C° 0 mm 2 m/S 759 mmHg 80%
    19:00 +20°C° 0 mm 2 m/S 760 mmHg 90%
    20:00 +20°C° 0 mm 2 m/S 761 mmHg 91%
    21:00 +20°C° 0 mm 2 m/S 761 mmHg 92%
    22:00 +20°C° 0 mm 1 m/S 762 mmHg 93%
    23:00 +20°C° 0 mm 1 m/S 762 mmHg 93%
    Mehr zeigen